Regional Weather Roundup
Issued by NWS Charleston, WV

Home | Current Version | Previous Version | Text Only | Print | Product List | Glossary On
Versions: 1 2 3 4 5 6 7 8 9 10 11 12 13 14 15 16 17 18 19 20 21 22 23 24 25 26 27 28 29 30 31 32 33 34 35 36 37 38 39 40 41 42 43 44 45 46 47 48 49 50
000
ASUS41 KRLX 041910
RWRRLX
West Virginia Regional Weather Roundup
National Weather Service Charleston WV
200 PM EST SUN DEC 04 2016

Note: "fair" indicates few or no clouds below 12,000 feet with no
significant weather and/or obstructions to visibility.

WVZ003-042000-
Northern Panhandle of West Virginia

CITY           SKY/WX    TMP DP  RH WIND       PRES   REMARKS
WHEELING       CLOUDY    39  26  59 E14       30.10F
$$

WVZ009-042000-
Northwest West Virginia

CITY           SKY/WX    TMP DP  RH WIND       PRES   REMARKS
PARKERSBURG    CLOUDY    43  27  53 E7        30.11F
$$

WVZ006-042000-
Western West Virginia

CITY           SKY/WX    TMP DP  RH WIND       PRES   REMARKS
HUNTINGTON     CLOUDY    46  30  53 SE6       30.02F
$$

WVZ015-042000-
West Central West Virginia

CITY           SKY/WX    TMP DP  RH WIND       PRES   REMARKS
CHARLESTON     CLOUDY    46  31  55 NE6       30.04F
$$

WVZ022-031-042000-
North Central West Virginia

CITY           SKY/WX    TMP DP  RH WIND       PRES   REMARKS
CLARKSBURG     PTSUNNY   41  28  60 CALM      30.10F
MORGANTOWN     CLOUDY    44  28  53 N5        30.11F
$$

WVZ025-035-042-045-042000-
Southern West Virginia

CITY           SKY/WX    TMP DP  RH WIND       PRES   REMARKS
BECKLEY        CLOUDY    37  30  75 SE14      30.04F
LOGAN          CLOUDY    45  34  65 CALM      30.02F
BLUEFIELD      CLOUDY    37  33  85 VRB7G16   30.06F
LEWISBURG      CLOUDY    37  29  73 CALM      30.11F
$$

WVZ047-042000-
Northern Mountains of West Virginia

CITY           SKY/WX    TMP DP  RH WIND       PRES   REMARKS
ELKINS         CLOUDY    42  27  55 CALM      30.08F
$$

WVZ052-042000-
Eastern Panhandle of West Virginia

CITY           SKY/WX    TMP DP  RH WIND       PRES   REMARKS
MARTINSBURG    CLOUDY    43  27  53 CALM      30.19F
PETERSBURG     MOSUNNY   43  29  59 CALM      30.17F
$$




USA.gov is the U.S. government's official web portal to all federal, state and local government web resources and services.